This is the latest recevied weather packets stored in our database for station/object KB2SKP. If no packets are shown the sender has not sent any weather packets the latest 10 day(s).
| Time | Temp. | Humidity | Pressure | Rain* | Wind** | Luminosity | Snow |
|---|---|---|---|---|---|---|---|
| 1778076353 | 18.89° C | 74% | 1008 hPa | 0 mm | - | 41 W/m² | - |
| 1778076050 | 19.44° C | 72% | 1007.8 hPa | 0 mm | - | 31 W/m² | - |
| 1778075747 | 19.44° C | 71% | 1008 hPa | 0 mm | - | 33 W/m² | - |
| 1778075443 | 19.44° C | 71% | 1008.2 hPa | 0 mm | - | 44 W/m² | - |
| 1778075140 | 19.44° C | 71% | 1008.3 hPa | 0 mm | - | 49 W/m² | - |
| 1778074836 | 19.44° C | 71% | 1008.3 hPa | 0 mm | - | 64 W/m² | - |
| 1778074533 | 19.44° C | 71% | 1008 hPa | 0 mm | - | 55 W/m² | - |
| 1778074230 | 19.44° C | 70% | 1008 hPa | 0 mm | - | 63 W/m² | - |
| 1778073927 | 19.44° C | 71% | 1008 hPa | 0 mm | - | 64 W/m² | - |
| 1778073625 | 19.44° C | 71% | 1008 hPa | 0 mm | - | 60 W/m² | - |
| 1778073321 | 19.44° C | 71% | 1008 hPa | 0 mm | - | 55 W/m² | - |
| 1778073018 | 19.44° C | 71% | 1007.8 hPa | 0 mm | - | 55 W/m² | - |
| 1778072715 | 19.44° C | 70% | 1007.8 hPa | 0 mm | - | 74 W/m² | - |
| 1778072412 | 19.44° C | 71% | 1007.8 hPa | 0 mm | - | 73 W/m² | - |
| 1778072111 | 19.44° C | 71% | 1007.7 hPa | 0 mm | - | 55 W/m² | - |
| 1778071808 | 19.44° C | 70% | 1007.8 hPa | 0 mm | - | 60 W/m² | - |
| 1778071506 | 18.89° C | 71% | 1007.8 hPa | 0 mm | - | 82 W/m² | - |
| 1778071203 | 18.89° C | 71% | 1008.2 hPa | 0 mm | - | 70 W/m² | - |
| 1778070901 | 18.89° C | 72% | 1007.4 hPa | 0 mm | - | 63 W/m² | - |
| 1778070599 | 18.89° C | 71% | 1007.9 hPa | 0 mm | - | 55 W/m² | - |
| 1778070295 | 18.89° C | 72% | 1008 hPa | 0 mm | - | 52 W/m² | - |
| 1778069993 | 18.89° C | 72% | 1008.1 hPa | 0 mm | - | 63 W/m² | - |
| 1778069690 | 18.33° C | 73% | 1008.3 hPa | 0 mm | - | 63 W/m² | - |
| 1778069387 | 18.33° C | 73% | 1008.2 hPa | 0 mm | - | 60 W/m² | - |
| 1778069085 | 18.33° C | 73% | 1008 hPa | 0 mm | - | 48 W/m² | - |
* Rain latest hour (hover to see other rain measurements)
** Current wind speed in m/s (hover to see current wind gust speed)